Time,TemperatureF,DewpointF,PressureIn,WindDirection,WindDirectionDegrees,WindSpeedMPH,WindSpeedGustMPH,Humidity,HourlyPrecipIn,Conditions,Clouds,dailyrainin,SoftwareType,DateUTC
2013-06-30 00:53:00,63.0,61.0,29.80,East,90,8.0,16.0,94,-99.99,,,-99.99,,2013-06-30 05:53:00,
2013-06-30 01:02:00,63.0,61.0,29.80,East,90,6.0,9.0,94,-99.99,,,-99.99,,2013-06-30 06:02:00,
2013-06-30 01:23:00,63.0,61.0,29.80,East,90,6.0,9.0,95,-99.99,,,-99.99,,2013-06-30 06:23:00,
2013-06-30 01:34:00,63.0,61.0,29.80,East,90,7.0,10.0,95,-99.99,,,-99.99,,2013-06-30 06:34:00,
2013-06-30 01:43:00,63.0,61.0,29.80,East,90,7.0,10.0,95,-99.99,,,-99.99,,2013-06-30 06:43:00,
2013-06-30 01:53:00,62.0,61.0,29.81,NNW,337,5.0,7.0,96,-99.99,,,-99.99,,2013-06-30 06:53:00,
2013-06-30 02:02:00,63.0,61.0,29.81,NNW,337,4.0,7.0,96,-99.99,,,-99.99,,2013-06-30 07:02:00,
2013-06-30 02:12:00,63.0,61.0,29.81,East,90,4.0,7.0,96,-99.99,,,-99.99,,2013-06-30 07:12:00,
2013-06-30 02:33:00,63.0,62.0,29.81,East,90,5.0,7.0,96,-99.99,,,-99.99,,2013-06-30 07:33:00,
2013-06-30 02:53:00,63.0,62.0,29.81,NNW,337,7.0,11.0,96,-99.99,,,-99.99,,2013-06-30 07:53:00,
2013-06-30 04:23:00,64.0,62.0,29.81,East,90,10.0,16.0,93,-99.99,,,-99.99,,2013-06-30 09:23:00,
2013-06-30 04:53:00,64.0,62.0,29.82,East,90,7.0,10.0,94,-99.99,,,-99.99,,2013-06-30 09:53:00,
2013-06-30 05:02:00,64.0,62.0,29.82,NNW,337,7.0,10.0,94,-99.99,,,-99.99,,2013-06-30 10:02:00,
2013-06-30 05:22:00,64.0,62.0,29.83,East,90,7.0,11.0,95,-99.99,,,-99.99,,2013-06-30 10:22:00,
2013-06-30 05:33:00,64.0,62.0,29.83,NNW,337,7.0,10.0,95,-99.99,,,-99.99,,2013-06-30 10:33:00,
2013-06-30 05:42:00,64.0,62.0,29.83,East,90,8.0,13.0,95,-99.99,,,-99.99,,2013-06-30 10:42:00,
2013-06-30 06:11:00,63.0,62.0,29.84,East,90,8.0,12.0,95,-99.99,,,-99.99,,2013-06-30 11:11:00,
2013-06-30 07:33:00,65.0,62.0,29.85,East,90,7.0,9.0,91,-99.99,,,-99.99,,2013-06-30 12:33:00,
2013-06-30 07:43:00,65.0,62.0,29.85,East,90,9.0,13.0,90,-99.99,,,-99.99,,2013-06-30 12:43:00,
2013-06-30 08:22:00,67.0,61.0,29.86,East,90,10.0,14.0,83,-99.99,,,-99.99,,2013-06-30 13:22:00,
2013-06-30 08:53:00,69.0,63.0,29.87,NNE,22,8.0,14.0,80,-99.99,,,-99.99,,2013-06-30 13:53:00,
2013-06-30 10:02:00,69.0,60.0,29.89,NNW,337,10.0,14.0,73,-99.99,,,-99.99,,2013-06-30 15:02:00,
2013-06-30 11:53:00,72.0,59.0,29.90,East,90,11.0,16.0,62,-99.99,,,-99.99,,2013-06-30 16:53:00,
2013-06-30 12:11:00,74.0,58.0,29.89,NNE,22,13.0,18.0,58,-99.99,,,-99.99,,2013-06-30 17:11:00,
2013-06-30 12:34:00,74.0,59.0,29.90,East,90,14.0,23.0,61,-99.99,,,-99.99,,2013-06-30 17:34:00,
2013-06-30 13:22:00,76.0,58.0,29.89,NNE,22,12.0,17.0,53,-99.99,,,-99.99,,2013-06-30 18:22:00,
2013-06-30 13:53:00,77.0,58.0,29.89,NE,45,13.0,18.0,52,-99.99,,,-99.99,,2013-06-30 18:53:00,
2013-06-30 14:01:00,78.0,58.0,29.88,East,90,12.0,18.0,50,-99.99,,,-99.99,,2013-06-30 19:01:00,
2013-06-30 14:33:00,78.0,58.0,29.89,East,90,11.0,16.0,51,-99.99,,,-99.99,,2013-06-30 19:33:00,
2013-06-30 14:43:00,75.0,59.0,29.90,NE,45,12.0,18.0,58,-99.99,,,-99.99,,2013-06-30 19:43:00,
2013-06-30 14:53:00,74.0,59.0,29.90,NNE,22,13.0,17.0,59,-99.99,,,-99.99,,2013-06-30 19:53:00,
2013-06-30 15:02:00,74.0,59.0,29.90,NNE,22,11.0,14.0,61,-99.99,,,-99.99,,2013-06-30 20:02:00,
2013-06-30 15:42:00,77.0,59.0,29.90,NNE,22,14.0,18.0,55,-99.99,,,-99.99,,2013-06-30 20:42:00,
2013-06-30 16:11:00,77.0,59.0,29.90,NE,45,11.0,16.0,54,-99.99,,,-99.99,,2013-06-30 21:11:00,
2013-06-30 16:22:00,77.0,59.0,29.90,East,90,11.0,18.0,54,-99.99,,,-99.99,,2013-06-30 21:22:00,
2013-06-30 18:22:00,72.0,60.0,29.91,NNW,337,9.0,13.0,67,-99.99,,,-99.99,,2013-06-30 23:22:00,
2013-06-30 20:33:00,70.0,61.0,29.92,North,0,3.0,5.0,72,-99.99,,,-99.99,,2013-07-01 01:33:00,
2013-06-30 22:01:00,65.0,60.0,29.95,WSW,247,0.0,-999.0,82,-99.99,,,-99.99,,2013-07-01 03:01:00,
2013-06-30 22:52:00,69.0,61.0,29.96,NNE,22,9.0,13.0,75,-99.99,,,-99.99,,2013-07-01 03:52:00,
2013-06-30 23:32:00,68.0,59.0,29.96,NNE,22,5.0,9.0,75,-99.99,,,-99.99,,2013-07-01 04:32:00,
2013-06-30 23:43:00,67.0,59.0,29.96,East,90,7.0,11.0,76,-99.99,,,-99.99,,2013-07-01 04:43:00,
2013-06-30 23:53:00,67.0,60.0,29.96,East,90,5.0,7.0,78,-99.99,,,-99.99,,2013-07-01 04:53:00,